Regional Weather Roundup
Issued by NWS

Home | Current Version | Previous Version | Graphics & Text | Print | Product List | Glossary On
Versions: 1 2 3 4 5 6 7 8 9 10 11 12 13 14 15 16 17 18 19 20 21 22 23 24 25 26 27 28 29 30 31 32 33 34 35 36 37 38 39 40 41 42 43 44 45 46 47 48 49 50
000
ASUS43 KOAX 221302
RWRNE

WEATHER ROUNDUP FOR NEBRASKA
NATIONAL WEATHER SERVICE OMAHA NE
700 AM CST WED NOV 22 2017

NOTES: SATELLITE DATA IS BEING USED TO AUGMENT CLOUD COVER ABOVE
       12000 FEET.
       "FAIR" INDICATES FEW OR NO CLOUDS BELOW 12,000 FEET WITH NO
       SIGNIFICANT WEATHER AND/OR OBSTRUCTIONS TO VISIBILITY.


NEZ001>004-019>022-054>056-221400-
NEBRASKA PANHANDLE

CITY           SKY/WX    TMP DP  RH WIND       PRES   REMARKS
SCOTTSBLUFF    CLOUDY    28  23  81 CALM      30.14F
ALLIANCE       CLOUDY    31  30  96 SW5       30.11F WCI  26
CHADRON        CLOUDY    32  29  88 S3        30.10S
GORDON         FAIR      33  28  81 CALM      30.08F
KIMBALL        CLOUDY    35  32  90 SW8       30.18F WCI  28
SIDNEY         CLOUDY    39  33  79 W13       30.17S WCI  31
$$

NEZ057>060-069>072-079>082-221400-
SOUTHWEST NEBRASKA

CITY           SKY/WX    TMP DP  RH WIND       PRES   REMARKS
NORTH PLATTE   CLOUDY    27  19  72 CALM      30.19F
IMPERIAL       CLOUDY    30  26  85 SW6       30.18F WCI  24
LEXINGTON      CLOUDY    29  15  56 S10       30.23F WCI  20
MCCOOK         CLOUDY    30  21  69 S6        30.23F WCI  24
OGALLALA       CLOUDY    28  25  90 SW3       30.17F
$$

NEZ005>010-023>029-035>040-094-221400-
NORTH CENTRAL NEBRASKA

CITY           SKY/WX    TMP DP  RH WIND       PRES   REMARKS
VALENTINE      CLOUDY    29  21  72 SW8       30.11F WCI  21
AINSWORTH      CLOUDY    29  18  63 SW14      30.12F WCI  18
BROKEN BOW     CLOUDY    27  13  55 S10       30.19F WCI  17
O`NEILL        CLOUDY    20  15  81 S10       30.20F WCI   9
ORD            CLOUDY    21  14  74 SE7       30.24F WCI  12
THEDFORD       CLOUDY    31  21  66 SW9       30.15F WCI  23
$$

NEZ041-046>049-061>064-073>077-083>087-221400-
SOUTH CENTRAL NEBRASKA

CITY           SKY/WX    TMP DP  RH WIND       PRES   REMARKS
GRAND ISLAND   CLEAR     20  14  77 S9        30.31F WCI   9
AURORA         CLOUDY    19  13  77 SW7       30.32S WCI  10
HASTINGS       CLOUDY    19  11  70 S7        30.32F WCI  10
HEBRON         PTCLDY    15  11  87 CALM      30.37S
HOLDREGE       CLOUDY    23  15  69 S9        30.27F WCI  13
KEARNEY        CLOUDY    23  16  74 S12       30.29F WCI  12
YORK           CLOUDY    16  14  93 CALM      30.34S
$$

NEZ011>018-030>034-042>045-221400-
NORTHEAST NEBRASKA

CITY           SKY/WX    TMP DP  RH WIND       PRES   REMARKS
NORFOLK        CLOUDY    11   8  88 SE5       30.30F WCI   3
ALBION         CLOUDY    17  11  77 SE5       30.28F WCI   9
BLAIR          PTCLDY    16  12  84 CALM      30.36S
COLUMBUS       CLOUDY    12   9  87 CALM      30.34F
FREMONT        CLOUDY    14  10  85 CALM      30.37S
TEKAMAH        CLOUDY     8   4  83 S6        30.38F WCI  -2
WAYNE          CLOUDY    11   8  89 S6        30.32F WCI   2
$$

NEZ050>053-065>068-078-088>093-221400-
SOUTHEAST NEBRASKA

CITY           SKY/WX    TMP DP  RH WIND       PRES   REMARKS
LINCOLN        CLOUDY    16  10  77 S3        30.39F
OMAHA EPPLEY   PTCLDY    16   9  74 CALM      30.40R
BEATRICE       CLOUDY    15  11  86 CALM      30.37F
FALLS CITY     CLOUDY    16  11  80 W3        30.42R
NEBRASKA CITY  CLOUDY    16  13  88 W3        30.40R
PLATTSMOUTH    CLOUDY    16  12  86 CALM      30.39R
$$

NEZ044-045-051>053-067-221400-
OMAHA AREA

CITY           SKY/WX    TMP DP  RH WIND       PRES   REMARKS
OMAHA EPPLEY   PTCLDY    16   9  74 CALM      30.40R
BLAIR          PTCLDY    16  12  84 CALM      30.36S
FREMONT        CLOUDY    14  10  85 CALM      30.37S
MILLARD        CLOUDY    17  14  85 CALM      30.40S
OFFUTT AFB     PTCLDY    15   9  79 CALM      30.39S
PLATTSMOUTH    CLOUDY    16  12  86 CALM      30.39R
WAHOO          FAIR      15  11  85 CALM      30.37S
$$




USA.gov is the U.S. government's official web portal to all federal, state and local government web resources and services.